Regional Weather Roundup
Issued by NWS

Home | Current Version | Previous Version | Text Only | Print | Product List | Glossary Off
Versions: 1 2 3 4 5 6 7 8 9 10 11 12 13 14 15 16 17 18 19 20 21 22 23 24 25 26 27 28 29 30 31 32 33 34 35 36 37 38 39 40 41 42 43 44 45 46 47 48 49 50

000
ASUS43 KMKX 300700
RWRWI

WISCONSIN REGIONAL WEATHER ROUNDUP
NATIONAL WEATHER SERVICE MILWAUKEE/SULLIVAN WI
200 AM CDT THU OCT 30 2014

NOTE: "FAIR" INDICATES FEW OR NO CLOUDS BELOW 12,000 FEET WITH NO
SIGNIFICANT WEATHER AND/OR OBSTRUCTIONS TO VISIBILITY.

WIZ001-002-006>008-014>016-023>028-300800-
NORTHWEST WISCONSIN

CITY           SKY/WX    TMP DP  RH WIND       PRES   REMARKS
SUPERIOR ARPT  CLOUDY    38  34  85 CALM      30.07S
ASHLAND        CLOUDY    39  33  79 W5        30.07S
HAYWARD        CLOUDY    38  31  76 W3        30.06F
SIREN          CLOUDY    38  32  81 S3        30.08S
CUMBERLAND     FAIR      32  32 100 CALM      30.07F
RICE LAKE      FAIR      32  31  96 CALM      30.09S
CHETEK         FAIR      32  31  96 CALM      30.08F
LADYSMITH      MOCLDY    36  32  86 CALM      30.08F
EAU CLAIRE     NOT AVBL
MENOMONIE      NOT AVBL
NEW RICHMOND   CLOUDY    34  33  96 CALM      30.09S
OSCEOLA        CLOUDY    36  35  96 CALM      30.11S
$$

WIZ003>005-009-010-017-018-300800-
NORTH CENTRAL WISCONSIN

CITY           SKY/WX    TMP DP  RH WIND       PRES   REMARKS
MANITOWISH WTR CLOUDY    35  32  88 SW6       30.05S WCI  30
ARBOR VITAE    CLOUDY    37  32  82 W5        30.05S WCI  34
WOODRUFF       CLOUDY    37  32  82 W5        30.05S WCI  34
RHINELANDER    CLOUDY    37  31  78 W7        30.06S WCI  32
EAGLE RIVER    CLOUDY    37  31  79 W6        30.04F WCI  32
LAND O LAKES   CLOUDY    37  32  82 W3        30.05F
PHILLIPS       CLOUDY    37  32  83 S3        30.05F
TOMAHAWK       CLOUDY    36  31  83 CALM      30.07S
MEDFORD        PTCLDY    31  30  96 CALM      30.07S
MERRILL        MOCLDY    31  31  99 CALM      30.07F
$$

WIZ029-030-035-036-043>047-300800-
CENTRAL WISCONSIN

CITY           SKY/WX    TMP DP  RH WIND       PRES   REMARKS
WAUSAU         PTCLDY    34  31  88 CALM      30.07F
MOSINEE        PTCLDY    32  32 100 CALM      30.09F
MARSHFIELD     PTCLDY    33  29  85 CALM      30.08F
STEVENS POINT  PTCLDY    27  26  96 CALM      30.10S
WAUPACA        PTCLDY    33  32  96 CALM      30.11R
WAUTOMA        NOT AVBL
WISC RAPIDS    PTCLDY    31  29  92 CALM      30.10F
CAMP DOUGLAS   NOT AVBL
$$

WIZ011>013-019>022-031-037>040-048>050-300800-
NORTHEAST WISCONSIN

CITY           SKY/WX    TMP DP  RH WIND       PRES   REMARKS
ANTIGO         PTCLDY    31  31  99 SW3       30.06F
SHAWANO        CLOUDY    39  35  84 CALM      30.10S
OCONTO         CLOUDY    38  35  90 CALM      30.09S
STURGEON BAY   MOCLDY    43  34  70 CALM      30.09F
GREEN BAY      PTCLDY    39  35  86 W6        30.10S WCI  35
MANITOWOC      NOT AVBL
APPLETON       PTCLDY    36  32  87 W7        30.09F WCI  30
CLINTONVILLE   PTCLDY    34  32  93 CALM      30.10S
OSHKOSH        PTCLDY    36  31  82 W5        30.09F WCI  32
$$

WIZ032>034-041-042-053>061-300800-
SOUTHWEST WISCONSIN

CITY           SKY/WX    TMP DP  RH WIND       PRES   REMARKS
LA CROSSE      CLOUDY    36  32  85 SE5       30.11S WCI  32
SPARTA         MOCLDY    28  28  99 CALM      30.11F
VIROQUA        CLOUDY    36  32  84 CALM      30.10S
BOSCOBEL       MOCLDY    31  28  89 CALM      30.13F
PRAIRIE DU CHI MOCLDY    33  31  92 CALM      30.12S
PLATTEVILLE    CLEAR     34  31  88 S5        30.12F WCI  30
$$

WIZ056-057-062-063-064-067-068-300800-
SOUTH CENTRAL WISCONSIN

CITY           SKY/WX    TMP DP  RH WIND       PRES   REMARKS
REEDSBURG      PTCLDY    31  30  95 CALM      30.11S
BARABOO/DELLS  PTCLDY    32  30  93 CALM      30.10F
LONE ROCK      NOT AVBL
MINERAL POINT  MOCLDY    36  32  87 CALM      30.11F
MADISON        PTCLDY    33  30  88 CALM      30.12S
MIDDLETON      PTCLDY    32  32  99 CALM      30.11F
WATERTOWN      PTCLDY    30  29  96 CALM      30.11S
MONROE         PTCLDY    37  32  81 W5        30.11F WCI  34
JANESVILLE     PTCLDY    32  32 100 CALM      30.12S
$$

WIZ051-052-058>065-066-070>072-300800-
SOUTHEAST WISCONSIN

CITY           SKY/WX    TMP DP  RH WIND       PRES   REMARKS
MILWAUKEE      CLEAR     37  30  75 CALM      30.12F
WAUKESHA       CLEAR     30  28  93 CALM      30.13S
MILWAUKEE/TIMM CLEAR     32  30  93 CALM      30.13S
RACINE         CLEAR     37  30  75 W5        30.14S WCI  33
BURLINGTON     PTCLDY    28  27  99 CALM      30.12F
KENOSHA        CLEAR     33  31  92 CALM      30.12F
FOND DU LAC    PTCLDY    32  29  88 SW6       30.10F WCI  26
SHEBOYGAN      PTCLDY    34  30  85 W3        30.11F
WEST BEND      PTCLDY    32  30  93 CALM      30.11S
JUNEAU         PTCLDY    31  29  93 CALM      30.12S
$$

LSZ147-162-300800-
LAKE SUPERIOR

STATION/POSITION TIME  TEMP    WIND        PRES    WAVE
                       AIR SEA DIR/SP/G            HT/PER
                 (UTC) (F)     (DEG/KT/KT) (MB)    (FT/S)
W MID LAKE BUOY  0550   44 45  270/  8/ 10 1017.7F   1/ 4
DEVILS ISLAND    0600   42     260/ 13/ 15 1018.4R
PORT WING        0640   40     230/  5/  9 1018.3F
SAXON HARBOR     0640   41        CALM     1017.9F
$$

LMZ867-665-643>646-300800-
LAKE MICHIGAN

STATION/POSITION TIME  TEMP    WIND        PRES    WAVE
                       AIR SEA DIR/SP/G            HT/PER
                 (UTC) (F)     (DEG/KT/KT) (MB)    (FT/S)
CHAMBERS ISLAND  0600   44     310/  5/  7 1019.0S
N MID LAKE BUOY  0550   43 51  350/  6/  8 1019.4F   1/ 4
NORTHPORT PIER   0600   43     350/  2/  5 1019.0S
KEWAUNEE LAKESHO 0600   44     270/  3/  4 1018.5R
SHEBOYGAN LAKESH 0600   41 50  260/  6/  7 1020.6R
PORT WASHINGTON  0600   38     280/  4/  4 1020.7S
ATWATER BUOY     0600   45     250/  6/  8 1021.1R
MILWAUKEE LAKESH 0600   43     290/  3/  3   N/A
S MID LAKE BUOY  0550   47 53  310/  6/ 10 1020.4R   2/ 5
KENOSHA   LAKESH 0600   40     260/  6/  8 1020.3R
$$

TC  - TEMPERATURE IN CELSIUS
VSB - VISIBILITY IN STATUTE MILES
WCI - WIND CHILL INDEX
HX  - HEAT INDEX




USA.gov is the U.S. government's official web portal to all federal, state and local government web resources and services.